Back to catalog

HULIANWANG DIGUI-59

AliveCommunicationsPO
NORAD 65165·PAYLOAD·🇨🇳 China

Launched Aug 13, 2025 from Wenchang Space Launch Site

Loading…

Next Passes (next 24 hours)

TLE

FreshSource: Space-Track

Epoch: Sep 14, 2026, 13:44 UTC

1 65165U 25174B   26257.57246627  .00000024  00000-0  20950-4 0  9999
2 65165  86.4939 221.6873 0002142  79.5026 280.6349 13.24399899 52625

Track HULIANWANG DIGUI-59 in real time with AllMySat

Download on the App Store